[[{"header":{"parameterUnit":"m.s-1","parameterCategory":1,"la1":30.2991,"la2":30.254,"lo1":-89.0895,"lo2":-89.0444,"dy":0.0017,"dx":0.0017,"nx":28,"ny":28,"refTime":"2023-09-23T21:00:00:Z","depth":0,"parameterNumber":2,"parameterNumberName":"U-component_of_WINDS"},"data":[0,0,0,0,0,0,0,0,0,0,0,0,0,0,0,0,0,0,0,0,0,0,0,0,0,0,0,0,0,0,0,0,0,0,0,0,0,0,0,0,0,0,0,0,0,0,0,0,0,0,0,0,0,0,0,0,0,0,0.721,0.721,0,0.7196,0.7196,0.7196,0.719,0.7191,0.7191,0.7191,0.7175,0.7175,0.7174,0,0,0,0,0,0,0,0,0,0,0,0,0,0.7227,0.7227,0.721,0.721,0.7209,0.7196,0.7196,0.7196,0.719,0.7191,0.7191,0.7191,0.7175,0.7175,0.7174,0,0,0,0,0,0,0,0,0,0,0,0,0,0.7217,0.7227,0.721,0.7205,0.7205,0.7196,0.7196,0.7196,0.719,0.7191,0.7191,0.7191,0.7176,0.7175,0.7174,0.7169,0,0,0.7172,0.7172,0,0,0,0,0,0,0,0,0.7218,0.7217,0.7206,0.7205,0.7205,0.7195,0.7197,0.7187,0.719,0.7196,0.7191,0.7191,0.7182,0.7181,0.7178,0.7168,0.7168,0.7172,0.7172,0.7171,0.7171,0,0,0,0,0,0,0,0.7219,0.7217,0.7204,0.7206,0.7205,0.7203,0.7201,0.7195,0.7189,0.7195,0.7195,0.7193,0.7181,0.7179,0.7177,0.7167,0.7172,0.7172,0.7171,0.7171,0.715,0.715,0,0,0,0,0,0,0.722,0.7218,0.7205,0.7204,0.7212,0.7202,0.7201,0.7198,0.7189,0.7187,0.7193,0.7193,0.718,0.7178,0.7177,0.7168,0.7171,0.7171,0.717,0.715,0.715,0.715,0,0,0,0,0,0,0.7221,0.7219,0.7205,0.7211,0.7209,0.7202,0.7199,0.7198,0.7195,0.7187,0.7186,0.7192,0.718,0.7178,0.717,0.7168,0.7171,0.717,0.715,0.715,0.715,0.7152,0,0,0,0,0,0,0.7221,0.722,0.7219,0.7211,0.7209,0.72,0.7199,0.7198,0.7194,0.7194,0.7185,0.7184,0.7179,0.7171,0.717,0.7167,0.7169,0.715,0.715,0.715,0.7152,0.7152,0.7152,0,0,0,0,0,0.7222,0.722,0.7219,0.7217,0.7207,0.72,0.7199,0.7194,0.7194,0.7192,0.7186,0.7184,0.7168,0.7171,0.7169,0.7166,0.715,0.715,0.715,0.7152,0.7152,0.7152,0,0,0,0,0,0,0.7228,0.7219,0.7217,0.7213,0.7207,0.7199,0.7197,0.7194,0.7188,0.7188,0.7182,0.718,0.7173,0.7169,0.7171,0.7158,0.7159,0.7158,0.7162,0.7161,0.7161,0.7162,0.7169,0,0,0,0,0,0.7228,0.7224,0.7217,0.7213,0.7211,0.7204,0.7201,0.7198,0.7191,0.7189,0.7183,0.7176,0.7169,0.7165,0.7159,0.7152,0.7148,0.7148,0.7148,0.7148,0.7147,0.714,0.7139,0.7148,0.7148,0.7148,0,0,0.723,0.7225,0.7223,0.7214,0.721,0.7204,0.7202,0.7197,0.7192,0.7188,0.718,0.7175,0.7167,0.7159,0.7156,0.7156,0.7143,0.7147,0.7147,0.7146,0.7139,0.7139,0.7138,0.7148,0.7148,0.7148,0,0,0.723,0.7226,0.7222,0.7217,0.7209,0.7205,0.7204,0.7196,0.7192,0.7184,0.718,0.7174,0.7163,0.7156,0.7152,0.7146,0.7143,0.7144,0.7143,0.7136,0.7135,0.7135,0.7131,0.713,0.7143,0.7143,0.7143,0,0.7233,0.7225,0.722,0.7214,0.721,0.7205,0.72,0.7195,0.7186,0.7182,0.7182,0.7167,0.7161,0.715,0.7148,0.7146,0.7142,0.7145,0.7136,0.7135,0.7134,0.713,0.7129,0.7144,0.7144,0.7144,0.7143,0,0.7228,0.7222,0.7219,0.721,0.7205,0.72,0.7193,0.7188,0.7185,0.7179,0.717,0.7163,0.7153,0.7151,0.7148,0.7138,0.7138,0.7137,0.7138,0.7134,0.713,0.7128,0.7144,0.7144,0.7144,0.7144,0,0,0.7232,0.7218,0.7217,0.7212,0.7202,0.7197,0.719,0.7182,0.7177,0.717,0.7163,0.7152,0.715,0.7145,0.7141,0.7135,0.7128,0.7134,0.7134,0.7132,0.7115,0.7115,0.7114,0.7126,0.7126,0.7125,0.7115,0,0.7229,0.7218,0.7212,0.7202,0.7196,0.719,0.7184,0.7176,0.717,0.7163,0.7156,0.7148,0.7147,0.7144,0.7138,0.713,0.7124,0.7131,0.7118,0.7117,0.7119,0.7112,0.7113,0.7103,0.7114,0.7113,0.7113,0,0.7225,0.7218,0.7208,0.7196,0.7193,0.7188,0.7178,0.7171,0.7161,0.7157,0.715,0.7145,0.7136,0.7137,0.7122,0.7127,0.7121,0.7116,0.7115,0.7113,0.7115,0.7108,0.71,0.7098,0.7111,0.7111,0.7112,0,0.7227,0.7215,0.7206,0.7202,0.7189,0.7185,0.7179,0.717,0.7164,0.7154,0.715,0.7139,0.7134,0.7125,0.7116,0.7118,0.7102,0.7103,0.7097,0.7097,0.7093,0.7094,0.7083,0.7091,0.7091,0.7091,0.7091,0,0.7225,0.7218,0.7207,0.7202,0.7193,0.7185,0.7177,0.7171,0.7161,0.7153,0.7148,0.714,0.713,0.7121,0.7114,0.7102,0.7099,0.7094,0.7093,0.7094,0.7095,0.709,0.709,0.7091,0.7091,0.7091,0.7091,0,0.7226,0.7218,0.7208,0.7196,0.7193,0.7187,0.7176,0.7169,0.7163,0.7152,0.7149,0.7138,0.7126,0.7117,0.7102,0.7097,0.7084,0.7083,0.7087,0.7086,0.708,0.708,0.7065,0.7062,0.7073,0.7073,0.7073,0,0.7225,0.7219,0.7206,0.72,0.7194,0.7186,0.7179,0.717,0.7164,0.715,0.7145,0.7133,0.7122,0.7103,0.7093,0.7081,0.7078,0.7074,0.7076,0.7077,0.7076,0.7076,0.7074,0.7073,0.7073,0.7073,0.7073,0,0.7222,0.7218,0.7209,0.7198,0.719,0.7181,0.7172,0.7167,0.7157,0.7149,0.7137,0.7128,0.7112,0.7099,0.7085,0.7077,0.7072,0.7072,0.707,0.7071,0.7073,0.707,0.7085,0.7073,0.7073,0.7073,0.7073,0.7073,0.7221,0.7215,0.7204,0.7193,0.7185,0.7176,0.7169,0.716,0.715,0.7136,0.7131,0.7118,0.7105,0.7086,0.7078,0.7066,0.7066,0.7063,0.7062,0.7061,0.706,0.7076,0.7064,0.7064,0.7064,0.7064,0.7064,0,0.7217,0.7209,0.7199,0.7186,0.7177,0.7173,0.7162,0.7154,0.7143,0.7132,0.7121,0.7106,0.7092,0.708,0.7066,0.7059,0.7056,0.7055,0.7055,0.7053,0.7063,0.7065,0.7057,0.7057,0.7057,0.7057,0.7057,0.7057,0.7213,0.7202,0.7196,0.718,0.7172,0.7159,0.7153,0.7143,0.7134,0.7117,0.7106,0.7098,0.7085,0.707,0.7056,0.7053,0.7047,0.7047,0.7042,0.7052,0.7052,0.7053,0.7056,0.7046,0.7046,0.7033,0.7033,0.7033]},{"header":{"parameterUnit":"m.s-1","parameterCategory":1,"la1":30.2991,"la2":30.254,"lo1":-89.0895,"lo2":-89.0444,"dy":0.0017,"dx":0.0017,"nx":28,"ny":28,"refTime":"2023-09-23T21:00:00:Z","depth":0,"parameterNumber":3,"parameterNumberName":"V-component_of_WINDS"},"data":[0,0,0,0,0,0,0,0,0,0,0,0,0,0,0,0,0,0,0,0,0,0,0,0,0,0,0,0,0,0,0,0,0,0,0,0,0,0,0,0,0,0,0,0,0,0,0,0,0,0,0,0,0,0,0,0,0,0,0.4326,0.4327,0,0.4393,0.4393,0.4394,0.441,0.4409,0.4409,0.4408,0.4473,0.4476,0.4478,0,0,0,0,0,0,0,0,0,0,0,0,0,0.4207,0.4209,0.4326,0.4327,0.4328,0.4393,0.4393,0.4394,0.441,0.4409,0.4409,0.4408,0.4473,0.4475,0.4478,0,0,0,0,0,0,0,0,0,0,0,0,0,0.4264,0.421,0.4326,0.4343,0.4345,0.4392,0.4394,0.4395,0.441,0.4409,0.4409,0.4408,0.4472,0.4475,0.4478,0.4512,0,0,0.4488,0.449,0,0,0,0,0,0,0,0,0.4261,0.4269,0.434,0.4342,0.4345,0.4392,0.4375,0.4434,0.441,0.4385,0.4408,0.4408,0.4447,0.4452,0.4466,0.4515,0.4517,0.4488,0.449,0.4492,0.4493,0,0,0,0,0,0,0,0.4257,0.4266,0.4352,0.4341,0.4344,0.4346,0.4353,0.4386,0.4419,0.4387,0.4389,0.4397,0.4448,0.4463,0.4468,0.4518,0.4488,0.4491,0.4493,0.4494,0.4595,0.4595,0,0,0,0,0,0,0.4251,0.4263,0.435,0.4354,0.4301,0.4349,0.4357,0.4378,0.4419,0.4424,0.4397,0.4397,0.4458,0.4464,0.447,0.451,0.4492,0.4495,0.4497,0.4594,0.4595,0.4596,0,0,0,0,0,0,0.4248,0.4258,0.4347,0.4309,0.432,0.4352,0.4374,0.4379,0.4394,0.4426,0.4431,0.4407,0.4457,0.4465,0.4501,0.4513,0.4496,0.4499,0.4593,0.4594,0.4595,0.4592,0,0,0,0,0,0,0.4245,0.4257,0.4272,0.4309,0.4322,0.4379,0.4375,0.4381,0.44,0.4401,0.4436,0.4442,0.4457,0.4496,0.4504,0.4517,0.4502,0.4592,0.4594,0.4595,0.4591,0.4593,0.4594,0,0,0,0,0,0.424,0.4268,0.4272,0.4283,0.4341,0.4379,0.4387,0.4406,0.4401,0.4415,0.4435,0.444,0.451,0.4499,0.4509,0.4523,0.4592,0.4593,0.4595,0.459,0.4592,0.4594,0,0,0,0,0,0,0.4231,0.4273,0.4279,0.432,0.4346,0.4382,0.44,0.4407,0.4435,0.4434,0.4455,0.4463,0.4496,0.4513,0.45,0.4555,0.455,0.4554,0.4544,0.4546,0.4547,0.4543,0.4504,0,0,0,0,0,0.4234,0.4263,0.4297,0.433,0.4343,0.4369,0.4387,0.4398,0.4426,0.4437,0.446,0.4485,0.4512,0.453,0.4557,0.4593,0.46,0.4607,0.4608,0.461,0.4612,0.463,0.4633,0.4601,0.4601,0.4601,0,0,0.424,0.4266,0.4283,0.4329,0.4351,0.4378,0.4378,0.4408,0.4428,0.4441,0.4476,0.4493,0.4522,0.4558,0.4574,0.4573,0.4623,0.4612,0.4612,0.4615,0.4632,0.4635,0.4638,0.4602,0.4602,0.4602,0,0,0.4264,0.4288,0.4317,0.4338,0.4371,0.4388,0.4395,0.443,0.4442,0.4477,0.4486,0.451,0.4557,0.4577,0.4593,0.4622,0.4628,0.4631,0.4639,0.4656,0.4658,0.4661,0.467,0.4673,0.4633,0.4633,0.4633,0,0.4267,0.4311,0.4331,0.436,0.4378,0.4391,0.4419,0.4439,0.4478,0.449,0.4488,0.4546,0.4567,0.4606,0.4612,0.4626,0.4632,0.4627,0.4657,0.4659,0.4662,0.467,0.4674,0.4633,0.4633,0.4633,0.4633,0,0.4312,0.4342,0.4361,0.4399,0.442,0.4448,0.447,0.4488,0.4497,0.4514,0.4548,0.4573,0.4605,0.4615,0.4624,0.4654,0.4652,0.4653,0.4648,0.4664,0.4673,0.4677,0.4633,0.4633,0.4633,0.4633,0,0,0.4335,0.4382,0.4388,0.4405,0.4441,0.4463,0.4491,0.4522,0.4536,0.4562,0.4585,0.4623,0.4624,0.4642,0.4653,0.4669,0.4688,0.4667,0.4668,0.4669,0.4721,0.4719,0.4723,0.4692,0.4692,0.4693,0.4718,0,0.4363,0.4414,0.4432,0.4473,0.45,0.4511,0.4534,0.4558,0.4573,0.4596,0.4613,0.4639,0.4638,0.4649,0.4665,0.4682,0.4698,0.4681,0.4711,0.4712,0.4703,0.4728,0.4727,0.475,0.4721,0.4722,0.4722,0,0.4404,0.4431,0.4475,0.4506,0.4517,0.4538,0.4567,0.459,0.4615,0.4625,0.4645,0.4654,0.4681,0.4674,0.4711,0.4698,0.4711,0.4721,0.4723,0.4726,0.4718,0.4731,0.4758,0.4761,0.4728,0.4728,0.4727,0,0.4414,0.4461,0.4493,0.4507,0.4544,0.4558,0.4574,0.4599,0.4616,0.464,0.4651,0.4678,0.4692,0.4712,0.4728,0.4722,0.4762,0.4757,0.4769,0.4769,0.4778,0.4777,0.4806,0.4787,0.4787,0.4787,0.4786,0,0.4444,0.447,0.4498,0.4518,0.4547,0.4565,0.4593,0.4609,0.4631,0.4652,0.4663,0.4683,0.4702,0.4724,0.4736,0.4763,0.477,0.4777,0.478,0.4776,0.4775,0.4785,0.4784,0.4787,0.4787,0.4787,0.4787,0,0.4461,0.4481,0.4516,0.4548,0.4556,0.4576,0.4602,0.462,0.4635,0.4662,0.4669,0.4692,0.4718,0.4736,0.4769,0.4777,0.4805,0.4808,0.4797,0.4798,0.481,0.4808,0.4846,0.4851,0.4829,0.4829,0.4829,0,0.4479,0.4499,0.4532,0.4548,0.4564,0.4589,0.4606,0.4623,0.464,0.467,0.4684,0.4711,0.4733,0.4773,0.4792,0.4816,0.4819,0.4831,0.4823,0.4818,0.4818,0.4817,0.4818,0.4832,0.4832,0.4832,0.4832,0,0.4508,0.4516,0.4541,0.4568,0.4588,0.4611,0.4633,0.4644,0.4666,0.4684,0.471,0.4728,0.4761,0.4786,0.4812,0.4826,0.4832,0.4834,0.4838,0.4834,0.4827,0.483,0.48,0.4833,0.4833,0.4833,0.4833,0.4833,0.4525,0.4543,0.4568,0.4595,0.4613,0.4633,0.4652,0.4668,0.4691,0.472,0.4729,0.4756,0.4778,0.4814,0.4828,0.4848,0.4847,0.4853,0.4855,0.4856,0.4855,0.4823,0.4853,0.4853,0.4853,0.4853,0.4853,0,0.4553,0.457,0.4594,0.4625,0.4645,0.4649,0.4673,0.4689,0.4713,0.4734,0.4756,0.4785,0.4809,0.4829,0.4853,0.4865,0.4869,0.4871,0.487,0.4873,0.4856,0.4849,0.4868,0.4868,0.4868,0.4868,0.4868,0.4868,0.4571,0.4601,0.4611,0.4649,0.4665,0.4693,0.4706,0.4724,0.474,0.4773,0.4793,0.4806,0.4826,0.4851,0.4873,0.4878,0.4886,0.4888,0.4893,0.4876,0.4875,0.4873,0.4867,0.4889,0.4889,0.4909,0.4909,0.4909]}]]